Back to catalog

DMSP 5D-2 F13 DEB

AliveSSO
NORAD 40558·DEBRIS·🇺🇸 United States

Launched Mar 24, 1995 from Vandenberg Space Force Base

Loading…

Next Passes (next 24 hours)

TLE

FreshSource: Space-Track

Epoch: Sep 14, 2026, 11:09 UTC

1 40558U 95015DR  26257.46463820  .00002178  00000-0  93750-3 0  9992
2 40558  98.9679 253.7008 0042502 162.1951 198.0728 14.25207407589262

Track DMSP 5D-2 F13 DEB in real time with AllMySat

Download on the App Store